BAW120 KCVG-EGLL

Flight info

Callsign BAW120
Flight time N/A
Altitude 37000
Route HAGOL5 RINTE DCT CXR DCT JHW DCT SYR DCT CABCI DCT MIILS N285B NICSO/M083F370 DCT 48N050W 50N040W 52N030W 54N020W DCT DOGAL/N0477F370 DCT BEXET DCT ENJEX DCT AVZAC DCT INFEC DCT JETZI DCT AMFUL DCT ORZEB/N0439F230 P2 SIRIC
Aircraft B77L/H-SDE1E2E3FGHIJ2J3J4J5M1RWXY/LB1D1

Departure

Time 2026-05-05 22:48
Airport Cincinnati Northern Kentucky International Airport (KCVG)

Arrival

Time N/A
Airport London Heathrow Airport (EGLL)
Time Latitude Longitude Altitude Speed Heading
2026-05-05 22:28 39.05103 -84.65650 891 ft 0 kts 217°
2026-05-05 22:40 39.05109 -84.65644 891 ft 3 kts 198°
2026-05-05 22:40 39.05111 -84.65636 891 ft 3 kts 123°
2026-05-05 22:40 39.05122 -84.65652 891 ft 2 kts 167°
2026-05-05 22:41 39.05137 -84.65656 891 ft 3 kts 154°
2026-05-05 22:41 39.05150 -84.65669 891 ft 3 kts 112°
2026-05-05 22:41 39.05155 -84.65694 891 ft 3 kts 92°
2026-05-05 22:41 39.05155 -84.65706 891 ft 0 kts 90°
2026-05-05 22:45 39.05155 -84.65680 891 ft 10 kts 89°
2026-05-05 22:45 39.05155 -84.65586 891 ft 11 kts 90°
2026-05-05 22:45 39.05155 -84.65420 891 ft 24 kts 90°
2026-05-05 22:46 39.05155 -84.65210 891 ft 24 kts 90°
2026-05-05 22:46 39.05119 -84.65073 891 ft 15 kts 156°
2026-05-05 22:46 39.04995 -84.65070 891 ft 24 kts 187°
2026-05-05 22:46 39.04854 -84.65071 891 ft 15 kts 185°
2026-05-05 22:47 39.04810 -84.65179 891 ft 13 kts 269°
2026-05-05 22:47 39.04788 -84.65282 890 ft 12 kts 221°
2026-05-05 22:47 39.04703 -84.65303 887 ft 13 kts 185°
2026-05-05 22:47 39.04632 -84.65352 884 ft 12 kts 250°
2026-05-05 22:48 39.04628 -84.65661 881 ft 74 kts 270°
2026-05-05 22:48 39.04629 -84.66698 884 ft 156 kts 270°
2026-05-05 22:48 39.04643 -84.68370 1040 ft 211 kts 269°
2026-05-05 22:48 39.04659 -84.70293 2092 ft 214 kts 265°
2026-05-05 22:49 39.04638 -84.72192 3319 ft 213 kts 262°
2026-05-05 22:49 39.04614 -84.74159 3764 ft 229 kts 262°
2026-05-05 22:49 39.04576 -84.76248 4327 ft 239 kts 263°
2026-05-05 22:49 39.04585 -84.78425 4966 ft 248 kts 263°
2026-05-05 22:50 39.04595 -84.80666 5756 ft 250 kts 263°
2026-05-05 22:50 39.04601 -84.82907 6613 ft 251 kts 265°
2026-05-05 22:50 39.04597 -84.85153 7431 ft 251 kts 264°
2026-05-05 22:50 39.04694 -84.87406 8074 ft 258 kts 278°
2026-05-05 22:51 39.05555 -84.89473 8716 ft 280 kts 306°
2026-05-05 22:51 39.07178 -84.90946 9583 ft 296 kts 331°
2026-05-05 22:51 39.09254 -84.91410 10395 ft 314 kts 359°
2026-05-05 22:51 39.11421 -84.90592 10798 ft 343 kts 27°
2026-05-05 22:52 39.13471 -84.88872 10964 ft 362 kts 27°
2026-05-05 22:52 39.15810 -84.87466 11169 ft 382 kts 13°
2026-05-05 22:52 39.18465 -84.87046 11524 ft 387 kts 348°
2026-05-05 22:52 39.21042 -84.87883 12157 ft 379 kts 337°
2026-05-05 22:53 39.23636 -84.88735 12678 ft 392 kts 345°
2026-05-05 22:53 39.26351 -84.89238 13533 ft 393 kts 349°
2026-05-05 22:53 39.29106 -84.89069 14011 ft 409 kts 11°
2026-05-05 22:53 39.31719 -84.87490 14606 ft 424 kts 32°
2026-05-05 22:54 39.33971 -84.85035 15157 ft 426 kts 38°
2026-05-05 22:54 39.36221 -84.82480 15647 ft 433 kts 38°
2026-05-05 22:54 39.38505 -84.79909 16250 ft 437 kts 38°
2026-05-05 22:54 39.40809 -84.77329 16894 ft 440 kts 38°
2026-05-05 22:55 39.43087 -84.74787 17506 ft 443 kts 37°
2026-05-05 22:55 39.45428 -84.72178 18089 ft 447 kts 37°
2026-05-05 22:55 39.47799 -84.69540 18573 ft 452 kts 37°
2026-05-05 22:55 39.50193 -84.66875 19042 ft 456 kts 37°
2026-05-05 22:56 39.52591 -84.64201 19539 ft 459 kts 37°
2026-05-05 22:56 39.55016 -84.61497 20027 ft 462 kts 37°
2026-05-05 22:56 39.57564 -84.58984 20351 ft 459 kts 25°
2026-05-05 22:56 39.60495 -84.57465 20622 ft 452 kts 11°
2026-05-05 22:57 39.63533 -84.56293 20970 ft 458 kts 11°
2026-05-05 22:57 39.66575 -84.55072 21473 ft 460 kts 12°
2026-05-05 22:57 39.69605 -84.53805 22036 ft 461 kts 12°
2026-05-05 22:57 39.72680 -84.52482 22572 ft 463 kts 12°
2026-05-05 22:58 39.75730 -84.51149 23025 ft 467 kts 12°
2026-05-05 22:58 39.78816 -84.49790 23455 ft 470 kts 12°
2026-05-05 22:58 39.81923 -84.48419 23834 ft 473 kts 12°
2026-05-05 22:58 39.85045 -84.47041 24271 ft 474 kts 12°
2026-05-05 22:59 39.88167 -84.45663 24723 ft 474 kts 11°
2026-05-05 22:59 39.91281 -84.44289 25195 ft 476 kts 11°
2026-05-05 22:59 39.94419 -84.42904 25591 ft 478 kts 11°
2026-05-05 22:59 39.97576 -84.41511 25965 ft 480 kts 11°
2026-05-05 23:00 40.03600 -84.37704 26502 ft 508 kts 35°
2026-05-05 23:00 40.06108 -84.34423 26735 ft 515 kts 40°
2026-05-05 23:00 40.08569 -84.30999 27008 ft 518 kts 40°
2026-05-05 23:01 40.11055 -84.27587 27383 ft 519 kts 39°
2026-05-05 23:01 40.13567 -84.24216 27858 ft 518 kts 39°
2026-05-05 23:01 40.16112 -84.20868 28195 ft 520 kts 38°
2026-05-05 23:01 40.18682 -84.17523 28469 ft 523 kts 38°
2026-05-05 23:02 40.21272 -84.14156 28734 ft 525 kts 38°
2026-05-05 23:02 40.23858 -84.10784 29020 ft 528 kts 38°
2026-05-05 23:02 40.26462 -84.07376 29309 ft 529 kts 38°
2026-05-05 23:02 40.29023 -84.03917 29567 ft 535 kts 43°
2026-05-05 23:03 40.31205 -83.99967 29818 ft 546 kts 53°
2026-05-05 23:03 40.33117 -83.95649 30161 ft 548 kts 56°
2026-05-05 23:03 40.34917 -83.91321 30441 ft 549 kts 56°
2026-05-05 23:03 40.36731 -83.86918 30775 ft 547 kts 56°
2026-05-05 23:04 40.38573 -83.82515 31101 ft 546 kts 55°
2026-05-05 23:04 40.40438 -83.78163 31348 ft 547 kts 54°
2026-05-05 23:04 40.42307 -83.73886 31601 ft 548 kts 53°
2026-05-05 23:04 40.44244 -83.69505 31869 ft 548 kts 53°
2026-05-05 23:05 40.46141 -83.65236 32152 ft 549 kts 52°
2026-05-05 23:05 40.48068 -83.60895 32453 ft 549 kts 52°
2026-05-05 23:05 40.49989 -83.56559 32739 ft 549 kts 52°
2026-05-05 23:05 40.51877 -83.52284 33011 ft 549 kts 52°
2026-05-05 23:06 40.53777 -83.47959 33568 ft 543 kts 52°
2026-05-05 23:06 40.55660 -83.43663 33898 ft 543 kts 51°
2026-05-05 23:06 40.57546 -83.39357 34114 ft 544 kts 51°
2026-05-05 23:06 40.59435 -83.35041 34339 ft 544 kts 51°
2026-05-05 23:07 40.61321 -83.30726 34605 ft 544 kts 51°
2026-05-05 23:07 40.63199 -83.26421 34885 ft 542 kts 51°
2026-05-05 23:07 40.65055 -83.22160 35176 ft 542 kts 51°
2026-05-05 23:07 40.66927 -83.17857 35439 ft 541 kts 51°
2026-05-05 23:08 40.68783 -83.13585 35748 ft 539 kts 52°
2026-05-05 23:08 40.70607 -83.09373 36185 ft 535 kts 52°
2026-05-05 23:08 40.72456 -83.05108 36357 ft 537 kts 52°
2026-05-05 23:08 40.74305 -83.00842 36483 ft 539 kts 52°
2026-05-05 23:09 40.76149 -82.96581 36690 ft 540 kts 52°
2026-05-05 23:09 40.78006 -82.92283 36804 ft 542 kts 52°
2026-05-05 23:09 40.81744 -82.83607 36839 ft 543 kts 52°
2026-05-05 23:10 40.85439 -82.74980 36844 ft 535 kts 52°
2026-05-05 23:10 40.89088 -82.66447 36851 ft 532 kts 52°
2026-05-05 23:11 40.92724 -82.57938 36853 ft 531 kts 52°
2026-05-05 23:11 40.96356 -82.49417 36872 ft 532 kts 52°
2026-05-05 23:12 40.99988 -82.40865 36871 ft 534 kts 52°
2026-05-05 23:12 41.03626 -82.32274 36877 ft 536 kts 53°
2026-05-05 23:13 41.07265 -82.23651 36878 ft 537 kts 53°
2026-05-05 23:13 41.10910 -82.14988 36885 ft 539 kts 53°
2026-05-05 23:14 41.14562 -82.06287 36878 ft 540 kts 53°
2026-05-05 23:14 41.18204 -81.97581 36877 ft 540 kts 53°
2026-05-05 23:15 41.21246 -81.90289 36867 ft 540 kts 53°
2026-05-05 23:15 41.24879 -81.81557 36869 ft 539 kts 53°
2026-05-05 23:16 41.28493 -81.72849 36881 ft 539 kts 54°
2026-05-05 23:16 41.32109 -81.64112 36873 ft 539 kts 54°
2026-05-05 23:17 41.35711 -81.55379 36862 ft 538 kts 54°
2026-05-05 23:17 41.39272 -81.46721 36855 ft 538 kts 54°
2026-05-05 23:18 41.42883 -81.37916 36855 ft 537 kts 54°
2026-05-05 23:18 41.46435 -81.29229 36872 ft 538 kts 54°
2026-05-05 23:19 41.50011 -81.20460 36876 ft 539 kts 55°
2026-05-05 23:19 41.53417 -81.11522 36878 ft 541 kts 59°
2026-05-05 23:20 41.56518 -81.02356 36873 ft 542 kts 60°
2026-05-05 23:20 41.59590 -80.93151 36872 ft 542 kts 60°
2026-05-05 23:21 41.62675 -80.83968 36907 ft 542 kts 60°
2026-05-05 23:21 41.65772 -80.74778 36876 ft 542 kts 60°
2026-05-05 23:22 41.68867 -80.65570 36870 ft 543 kts 60°
2026-05-05 23:22 41.71949 -80.56366 36867 ft 543 kts 60°
2026-05-05 23:23 41.75014 -80.47180 36872 ft 542 kts 60°
2026-05-05 23:23 41.78102 -80.37892 36870 ft 542 kts 60°
2026-05-05 23:24 41.81136 -80.28740 36869 ft 543 kts 60°
2026-05-05 23:24 41.84186 -80.19502 36871 ft 543 kts 60°
2026-05-05 23:25 41.87235 -80.10236 36879 ft 543 kts 60°
2026-05-05 23:25 41.90263 -80.01003 36874 ft 542 kts 60°
2026-05-05 23:26 41.93292 -79.91739 36874 ft 541 kts 60°
2026-05-05 23:26 41.96304 -79.82492 36899 ft 541 kts 61°
2026-05-05 23:27 41.99321 -79.73202 36888 ft 542 kts 61°
2026-05-05 23:27 42.02325 -79.63920 36876 ft 541 kts 62°
2026-05-05 23:28 42.05321 -79.54627 36876 ft 541 kts 62°
2026-05-05 23:28 42.08311 -79.45323 36883 ft 541 kts 62°
2026-05-05 23:29 42.11288 -79.36025 36883 ft 540 kts 62°
2026-05-05 23:29 42.14256 -79.26722 36871 ft 541 kts 62°
2026-05-05 23:30 42.17219 -79.17407 36874 ft 540 kts 62°
2026-05-05 23:30 42.20202 -79.08114 36840 ft 540 kts 60°
2026-05-05 23:31 42.23390 -78.99001 36856 ft 538 kts 59°
2026-05-05 23:31 42.26638 -78.89916 36854 ft 538 kts 59°
2026-05-05 23:32 42.29849 -78.80796 36842 ft 537 kts 59°
2026-05-05 23:32 42.33024 -78.71651 36841 ft 538 kts 60°
2026-05-05 23:33 42.36186 -78.62489 36850 ft 537 kts 59°
2026-05-05 23:33 42.39332 -78.53347 36853 ft 536 kts 59°
2026-05-05 23:34 42.42471 -78.44203 36860 ft 535 kts 59°
2026-05-05 23:34 42.45599 -78.35071 36853 ft 535 kts 60°
2026-05-05 23:35 42.48726 -78.25909 36850 ft 536 kts 60°
2026-05-05 23:35 42.51845 -78.16735 36838 ft 536 kts 60°
2026-05-05 23:36 42.54957 -78.07554 36857 ft 537 kts 60°
2026-05-05 23:36 42.58068 -77.98344 36840 ft 537 kts 60°
2026-05-05 23:37 42.61174 -77.89115 36852 ft 538 kts 60°
2026-05-05 23:37 42.64267 -77.79896 36878 ft 538 kts 60°
2026-05-05 23:38 42.67354 -77.70663 36881 ft 539 kts 60°
2026-05-05 23:38 42.70440 -77.61403 36869 ft 539 kts 60°
2026-05-05 23:39 42.73527 -77.52112 36857 ft 538 kts 61°
2026-05-05 23:39 42.76589 -77.42853 36853 ft 539 kts 61°
2026-05-05 23:40 42.79657 -77.33545 36822 ft 539 kts 61°
2026-05-05 23:40 42.82710 -77.24263 36835 ft 538 kts 61°
2026-05-05 23:41 42.85749 -77.14985 36821 ft 538 kts 61°
2026-05-05 23:41 42.88772 -77.05724 36818 ft 538 kts 61°
2026-05-05 23:42 42.91808 -76.96390 36846 ft 538 kts 62°
2026-05-05 23:42 42.94828 -76.87074 36814 ft 539 kts 62°
2026-05-05 23:43 42.97847 -76.77726 36807 ft 538 kts 62°
2026-05-05 23:43 43.00863 -76.68356 36816 ft 538 kts 62°
2026-05-05 23:44 43.03864 -76.59001 36810 ft 538 kts 62°
2026-05-05 23:44 43.06866 -76.49611 36802 ft 539 kts 62°
2026-05-05 23:45 43.09862 -76.40201 36830 ft 539 kts 62°
2026-05-05 23:45 43.12849 -76.30786 36825 ft 540 kts 62°
2026-05-05 23:46 43.15834 -76.21369 36833 ft 539 kts 61°
2026-05-05 23:46 43.19270 -76.12298 36860 ft 535 kts 56°
2026-05-05 23:47 43.22886 -76.03380 36836 ft 536 kts 56°
2026-05-05 23:47 43.26482 -75.94453 36821 ft 537 kts 56°
2026-05-05 23:48 43.30066 -75.85434 36791 ft 538 kts 56°
2026-05-05 23:48 43.33632 -75.76392 36810 ft 539 kts 57°
2026-05-05 23:49 43.37200 -75.67315 36804 ft 540 kts 57°
2026-05-05 23:49 43.40765 -75.58225 36805 ft 541 kts 57°
2026-05-05 23:50 43.44329 -75.49112 36806 ft 541 kts 57°
2026-05-05 23:50 43.47885 -75.39989 36794 ft 540 kts 57°
2026-05-05 23:51 43.51435 -75.30854 36782 ft 541 kts 57°
2026-05-05 23:51 43.54971 -75.21723 36778 ft 542 kts 57°
2026-05-05 23:52 43.58511 -75.12554 36768 ft 542 kts 57°
2026-05-05 23:52 43.62052 -75.03351 36769 ft 542 kts 57°
2026-05-05 23:53 43.65579 -74.94155 36763 ft 542 kts 57°
2026-05-05 23:53 43.69092 -74.84964 36769 ft 541 kts 57°
2026-05-05 23:54 43.72595 -74.75773 36773 ft 540 kts 58°
2026-05-05 23:54 43.76069 -74.66624 36762 ft 540 kts 58°
2026-05-05 23:55 43.79551 -74.57427 36759 ft 539 kts 58°
2026-05-05 23:55 43.83022 -74.48230 36769 ft 539 kts 58°
2026-05-05 23:56 43.86479 -74.39038 36757 ft 539 kts 58°
2026-05-05 23:56 43.89926 -74.29843 36759 ft 538 kts 58°
2026-05-05 23:57 43.92796 -74.22162 36754 ft 539 kts 58°
2026-05-05 23:57 43.96241 -74.12913 36770 ft 540 kts 58°
2026-05-05 23:58 44.00249 -74.02122 36779 ft 542 kts 58°
2026-05-05 23:58 44.03130 -73.94336 36772 ft 543 kts 58°
2026-05-05 23:59 44.06578 -73.84991 36799 ft 543 kts 59°
2026-05-05 23:59 44.09993 -73.75675 36780 ft 543 kts 59°
2026-05-06 00:00 44.13423 -73.66321 36788 ft 542 kts 59°
2026-05-06 00:00 44.16831 -73.57011 36763 ft 543 kts 59°
2026-05-06 00:01 44.20245 -73.47628 36759 ft 543 kts 59°
2026-05-06 00:01 44.23657 -73.38223 36746 ft 543 kts 59°
2026-05-06 00:02 44.27057 -73.28806 36748 ft 542 kts 59°
2026-05-06 00:02 44.30428 -73.19439 36766 ft 541 kts 59°
2026-05-06 00:03 44.33781 -73.10099 36763 ft 541 kts 60°
2026-05-06 00:03 44.37145 -73.00698 36786 ft 541 kts 60°
2026-05-06 00:04 44.40481 -72.91338 36788 ft 540 kts 60°
2026-05-06 00:04 44.43820 -72.81944 36788 ft 539 kts 60°
2026-05-06 00:05 44.48796 -72.67883 36807 ft 537 kts 60°
2026-05-06 00:06 44.52074 -72.58574 36802 ft 537 kts 60°
2026-05-06 00:06 44.55370 -72.49182 36793 ft 537 kts 60°
2026-05-06 00:07 44.58659 -72.39780 36760 ft 537 kts 61°
2026-05-06 00:07 44.61930 -72.30393 36782 ft 535 kts 62°
2026-05-06 00:08 44.65193 -72.20999 36781 ft 534 kts 62°
2026-05-06 00:08 44.68428 -72.11657 36812 ft 534 kts 62°
2026-05-06 00:09 44.71665 -72.02273 36808 ft 533 kts 62°
2026-05-06 00:09 44.74892 -71.92886 36814 ft 533 kts 62°
2026-05-06 00:10 44.78099 -71.83521 36787 ft 532 kts 63°
2026-05-06 00:10 44.81302 -71.74152 36801 ft 531 kts 62°
2026-05-06 00:11 44.85036 -71.65236 36812 ft 527 kts 53°
2026-05-06 00:11 44.89119 -71.56782 36811 ft 527 kts 53°
2026-05-06 00:12 44.93277 -71.48160 36808 ft 528 kts 53°
2026-05-06 00:12 44.97372 -71.39539 36810 ft 529 kts 53°
2026-05-06 00:13 45.01446 -71.30884 36778 ft 529 kts 54°
2026-05-06 00:13 45.05502 -71.22235 36802 ft 529 kts 54°
2026-05-06 00:14 45.09563 -71.13553 36792 ft 529 kts 54°
2026-05-06 00:14 45.13625 -71.04848 36777 ft 529 kts 54°
2026-05-06 00:15 45.17675 -70.96146 36787 ft 529 kts 54°
2026-05-06 00:15 45.21721 -70.87427 36778 ft 529 kts 55°
2026-05-06 00:16 45.25755 -70.78704 36771 ft 528 kts 54°
2026-05-06 00:16 45.29777 -70.69982 36772 ft 528 kts 54°
2026-05-06 00:17 45.33780 -70.61272 36789 ft 528 kts 55°
2026-05-06 00:17 45.37786 -70.52526 36783 ft 528 kts 55°
2026-05-06 00:18 45.41781 -70.43783 36768 ft 529 kts 55°
2026-05-06 00:18 45.45775 -70.35014 36770 ft 529 kts 55°
2026-05-06 00:19 45.49773 -70.26209 36768 ft 529 kts 56°
2026-05-06 00:19 45.53766 -70.17384 36771 ft 530 kts 56°
2026-05-06 00:20 45.57755 -70.08543 36739 ft 529 kts 56°
2026-05-06 00:20 45.61728 -69.99710 36775 ft 528 kts 56°
2026-05-06 00:21 45.65684 -69.90885 36760 ft 527 kts 56°
2026-05-06 00:21 45.69618 -69.82083 36753 ft 526 kts 56°
2026-05-06 00:22 45.73550 -69.73258 36748 ft 525 kts 57°
2026-05-06 00:22 45.77461 -69.64453 36766 ft 526 kts 57°
2026-05-06 00:23 45.81356 -69.55657 36755 ft 526 kts 57°
2026-05-06 00:23 45.85290 -69.46744 36755 ft 527 kts 57°
2026-05-06 00:24 45.89181 -69.37900 36734 ft 528 kts 57°
2026-05-06 00:24 45.93096 -69.28975 36736 ft 529 kts 57°
2026-05-06 00:25 45.97010 -69.20021 36734 ft 530 kts 57°
2026-05-06 00:25 46.00930 -69.11027 36733 ft 531 kts 57°
2026-05-06 00:26 46.04839 -69.02024 36727 ft 531 kts 57°
2026-05-06 00:26 46.08750 -68.92987 36734 ft 532 kts 57°
2026-05-06 00:27 46.12635 -68.83996 36716 ft 532 kts 57°
2026-05-06 00:27 46.16530 -68.74944 36722 ft 531 kts 57°
2026-05-06 00:28 46.20396 -68.65925 36750 ft 530 kts 58°
2026-05-06 00:28 46.24259 -68.56887 36740 ft 530 kts 58°
2026-05-06 00:29 46.28120 -68.47824 36729 ft 530 kts 58°
2026-05-06 00:29 46.31977 -68.38742 36726 ft 530 kts 58°
2026-05-06 00:30 46.35826 -68.29647 36740 ft 530 kts 58°
2026-05-06 00:30 46.39671 -68.20532 36726 ft 531 kts 58°
2026-05-06 00:31 46.43508 -68.11408 36721 ft 531 kts 58°
2026-05-06 00:31 46.47350 -68.02240 36726 ft 532 kts 58°
2026-05-06 00:32 46.51184 -67.93061 36735 ft 533 kts 58°
2026-05-06 00:32 46.55019 -67.83848 36728 ft 533 kts 58°
2026-05-06 00:33 46.58852 -67.74608 36722 ft 534 kts 58°
2026-05-06 00:33 46.62678 -67.65356 36720 ft 534 kts 58°
2026-05-06 00:34 46.66501 -67.56081 36703 ft 534 kts 58°
2026-05-06 00:34 46.70313 -67.46800 36708 ft 533 kts 58°
2026-05-06 00:35 46.74107 -67.37530 36712 ft 532 kts 58°
2026-05-06 00:35 46.77889 -67.28257 36729 ft 531 kts 58°
2026-05-06 00:36 46.81652 -67.19003 36720 ft 531 kts 58°
2026-05-06 00:36 46.85323 -67.09651 36708 ft 531 kts 64°
2026-05-06 00:37 46.87876 -66.99556 36718 ft 529 kts 76°
2026-05-06 00:37 46.89203 -66.89199 36706 ft 533 kts 83°
2026-05-06 00:38 46.90274 -66.78425 36725 ft 540 kts 84°
2026-05-06 00:38 46.91371 -66.67493 36718 ft 546 kts 83°
2026-05-06 00:39 46.92499 -66.56576 36718 ft 550 kts 83°
2026-05-06 00:39 46.93654 -66.45470 36687 ft 553 kts 83°
2026-05-06 00:40 46.94803 -66.34330 36706 ft 555 kts 83°
2026-05-06 00:40 46.95748 -66.25049 36720 ft 555 kts 83°
2026-05-06 00:41 46.96876 -66.13853 36715 ft 556 kts 83°
2026-05-06 00:41 46.97991 -66.02662 36731 ft 555 kts 84°
2026-05-06 00:42 46.99092 -65.91511 36726 ft 554 kts 84°
2026-05-06 00:42 47.00181 -65.80362 36735 ft 552 kts 84°
2026-05-06 00:43 47.01255 -65.69244 36736 ft 550 kts 84°
2026-05-06 00:43 47.02316 -65.58153 36741 ft 549 kts 84°
2026-05-06 00:44 47.03364 -65.47077 36708 ft 548 kts 84°
2026-05-06 00:44 47.04398 -65.36039 36756 ft 546 kts 85°
2026-05-06 00:45 47.05419 -65.25016 36735 ft 546 kts 85°